Simultaneous Nadir Overpasses (SNOs) Predictions

Prediction of SNOs near US between AQUA and NPP Satellite Orbit:

Table of predicted SNOs near US for the next 10.0 days since TLE Epoch: 3/26/2022
Index Date (AQUA) Time (AQUA) AQUA Lat,Lon Date (NPP) Time (NPP) NPP Lat,Lon Distance(km) Time Diff (sec)
1 03/27/2022 07:44:02 20.04, -88.69 03/27/2022 07:35:42 19.06, -89.59 144.48 500
2 03/27/2022 09:20:42 28.04,-111.47 03/27/2022 09:14:35 28.25,-112.63 115.91 367
3 03/30/2022 06:29:14 43.88, -65.03 03/30/2022 06:31:21 44.46, -67.91 238.50 127
4 03/30/2022 08:06:25 49.93, -87.43 03/30/2022 08:11:04 50.62, -90.74 247.28 279
5 04/01/2022 19:04:25 49.98, -91.66 04/01/2022 19:01:22 49.50, -94.33 199.32 183
6 04/01/2022 20:43:18 49.99,-116.38 04/01/2022 20:42:51 49.45,-119.68 244.79 27
7 04/04/2022 08:31:26 25.35, -99.62 04/04/2022 08:24:34 25.57,-100.65 106.51 412
8 04/04/2022 10:07:47 34.47,-121.94 04/04/2022 10:03:27 34.74,-123.48 144.09 260
